timestamp,wind_dir_avg,wind_spd_avg,wind_spd_max_dir,wind_spd_gust,battery_voltage,lat,long
2023-10-13 00:04:01+00:00,46.0,1.94,39.0,2.23,12.41,47.59359,-54.27349
2023-10-13 00:14:01+00:00,62.0,2.0,72.0,2.37,12.41,47.59359,-54.27349
2023-10-13 00:24:01+00:00,60.0,2.59,60.0,2.8,12.41,47.59359,-54.27349
2023-10-13 00:34:01+00:00,58.0,2.92,58.0,3.06,12.41,47.59359,-54.27349
2023-10-13 00:44:01+00:00,56.0,2.93,56.0,3.27,12.41,47.59359,-54.27349
2023-10-13 00:54:01+00:00,59.0,2.69,55.0,3.01,12.41,47.59359,-54.27349
2023-10-13 01:04:01+00:00,69.0,2.48,70.0,3.13,12.41,47.59359,-54.27349
2023-10-13 01:14:01+00:00,75.0,1.91,76.0,2.36,12.41,47.59359,-54.27349
2023-10-13 01:24:01+00:00,72.0,2.68,70.0,3.11,12.41,47.59359,-54.27349
2023-10-13 01:34:01+00:00,71.0,2.61,70.0,3.19,12.41,47.59359,-54.27349
2023-10-13 01:44:01+00:00,73.0,1.8,82.0,2.68,12.41,47.59359,-54.27349
2023-10-13 01:54:01+00:00,72.0,1.78,67.0,2.41,12.41,47.59359,-54.27349
2023-10-13 02:04:01+00:00,68.0,2.02,72.0,2.47,12.41,47.59359,-54.27349
2023-10-13 02:14:01+00:00,77.0,1.66,93.0,2.22,12.41,47.59359,-54.27349
2023-10-13 02:24:01+00:00,62.0,1.3,57.0,1.66,12.41,47.59359,-54.27349
2023-10-13 02:34:01+00:00,67.0,1.38,57.0,2.02,12.41,47.59359,-54.27349
2023-10-13 02:44:01+00:00,83.0,1.58,81.0,2.36,12.41,47.59359,-54.27349
2023-10-13 02:54:01+00:00,75.0,1.96,70.0,2.52,12.41,47.59359,-54.27349
2023-10-13 03:04:01+00:00,80.0,2.05,77.0,2.65,12.41,47.59359,-54.27349
2023-10-13 03:14:00+00:00,99.0,1.7,108.0,2.84,12.41,47.59359,-54.27349
2023-10-13 03:24:00+00:00,96.0,1.35,99.0,1.81,12.41,47.59359,-54.27349
2023-10-13 03:34:00+00:00,93.0,1.16,103.0,1.62,12.41,47.59359,-54.27349
2023-10-13 03:44:00+00:00,66.0,1.67,71.0,1.87,12.41,47.59359,-54.27349
2023-10-13 03:54:00+00:00,70.0,2.33,72.0,2.6,12.41,47.59359,-54.27349
2023-10-13 04:04:00+00:00,72.0,2.72,70.0,3.1,12.41,47.59359,-54.27349
2023-10-13 04:14:00+00:00,109.0,0.94,103.0,1.47,12.41,47.59359,-54.27349
2023-10-13 04:24:00+00:00,115.0,0.79,112.0,1.11,12.41,47.59359,-54.27349
2023-10-13 04:34:00+00:00,210.0,0.19,252.0,0.31,12.41,47.59359,-54.27349
2023-10-13 04:44:00+00:00,99.0,0.64,107.0,0.93,12.41,47.59359,-54.27349
2023-10-13 04:54:00+00:00,76.0,0.65,63.0,1.14,12.41,47.59359,-54.27349
2023-10-13 05:04:00+00:00,79.0,1.18,64.0,1.98,12.41,47.59359,-54.27349
2023-10-13 05:14:01+00:00,69.0,0.63,30.0,1.07,12.41,47.59359,-54.27349
2023-10-13 05:24:01+00:00,147.0,1.12,152.0,1.58,12.41,47.59359,-54.27349
2023-10-13 05:34:01+00:00,131.0,2.46,134.0,2.85,12.41,47.59359,-54.27349
2023-10-13 05:44:01+00:00,136.0,2.95,147.0,3.42,12.41,47.59359,-54.27349
2023-10-13 05:54:01+00:00,133.0,4.17,139.0,5.28,12.41,47.59359,-54.27349
2023-10-13 06:04:01+00:00,149.0,5.41,150.0,6.31,12.41,47.59359,-54.27349
2023-10-13 06:14:00+00:00,145.0,6.36,148.0,6.96,12.33,47.59359,-54.27349
2023-10-13 06:24:00+00:00,141.0,5.68,144.0,6.72,12.33,47.59359,-54.27349
2023-10-13 06:34:00+00:00,134.0,5.64,139.0,6.73,12.33,47.59359,-54.27349
2023-10-13 06:44:00+00:00,134.0,4.9,140.0,5.79,12.33,47.59359,-54.27349
2023-10-13 06:54:00+00:00,137.0,5.55,137.0,6.61,12.33,47.59359,-54.27349
2023-10-13 07:04:00+00:00,146.0,7.69,147.0,9.04,12.33,47.59359,-54.27349
2023-10-13 07:14:01+00:00,137.0,5.68,142.0,6.71,12.33,47.59359,-54.27349
2023-10-13 07:24:01+00:00,135.0,5.32,138.0,7.09,12.33,47.59359,-54.27349
2023-10-13 07:34:01+00:00,139.0,6.85,137.0,7.54,12.33,47.59359,-54.27349
2023-10-13 07:44:01+00:00,127.0,5.33,128.0,6.0,12.33,47.59359,-54.27349
2023-10-13 07:54:01+00:00,125.0,4.41,131.0,5.47,12.33,47.59359,-54.27349
2023-10-13 08:04:01+00:00,121.0,2.28,127.0,3.65,12.33,47.59359,-54.27349
2023-10-13 08:14:00+00:00,51.0,1.03,53.0,2.12,12.33,47.59359,-54.27349
2023-10-13 08:24:00+00:00,53.0,0.68,53.0,1.46,12.33,47.59359,-54.27349
2023-10-13 08:34:00+00:00,129.0,3.28,137.0,4.23,12.33,47.59359,-54.27349
2023-10-13 08:44:00+00:00,120.0,4.63,125.0,5.76,12.33,47.59359,-54.27349
2023-10-13 08:54:00+00:00,128.0,7.16,126.0,9.01,12.33,47.59359,-54.27349
2023-10-13 09:04:00+00:00,125.0,6.38,128.0,8.68,12.33,47.59359,-54.27349
2023-10-13 09:14:01+00:00,121.0,3.82,131.0,5.84,12.25,47.59359,-54.27349
2023-10-13 09:24:01+00:00,133.0,5.2,130.0,6.11,12.25,47.59359,-54.27349
2023-10-13 09:34:01+00:00,126.0,5.13,122.0,6.41,12.25,47.59359,-54.27349
2023-10-13 09:44:01+00:00,134.0,5.43,136.0,6.46,12.25,47.59359,-54.27349
2023-10-13 09:54:01+00:00,124.0,4.92,126.0,5.79,12.25,47.59359,-54.27349
2023-10-13 10:04:01+00:00,123.0,3.66,126.0,4.46,12.25,47.59359,-54.27349
2023-10-13 10:14:01+00:00,121.0,3.95,126.0,4.5,12.25,47.59359,-54.27349
2023-10-13 10:24:01+00:00,119.0,3.8,126.0,4.48,12.25,47.59359,-54.27349
2023-10-13 10:34:01+00:00,92.0,3.09,66.0,4.13,12.25,47.59359,-54.27349
2023-10-13 10:44:01+00:00,93.0,3.08,80.0,4.62,12.25,47.59359,-54.27349
2023-10-13 10:54:01+00:00,104.0,2.8,134.0,4.23,12.25,47.59359,-54.27349
2023-10-13 11:04:01+00:00,94.0,3.07,76.0,3.95,12.25,47.59359,-54.27349
2023-10-13 11:14:01+00:00,85.0,2.39,94.0,3.81,12.33,47.59359,-54.27349
2023-10-13 11:24:01+00:00,118.0,3.1,140.0,5.16,12.33,47.59359,-54.27349
2023-10-13 11:34:01+00:00,124.0,5.52,132.0,7.87,12.33,47.59359,-54.27349
2023-10-13 11:44:01+00:00,125.0,5.6,128.0,6.85,12.33,47.59359,-54.27349
2023-10-13 11:54:01+00:00,119.0,5.42,125.0,7.14,12.33,47.59359,-54.27349
2023-10-13 12:04:01+00:00,129.0,7.1,124.0,8.41,12.33,47.59359,-54.27349
2023-10-13 12:14:00+00:00,129.0,6.28,126.0,8.01,12.41,47.59359,-54.27349
2023-10-13 12:24:00+00:00,132.0,5.72,134.0,6.83,12.41,47.59359,-54.27349
2023-10-13 12:34:00+00:00,139.0,5.95,136.0,6.97,12.41,47.59359,-54.27349
2023-10-13 12:44:00+00:00,136.0,5.1,133.0,5.97,12.41,47.59359,-54.27349
2023-10-13 12:54:00+00:00,128.0,5.56,126.0,6.29,12.41,47.59359,-54.27349
2023-10-13 13:04:00+00:00,129.0,6.37,125.0,7.58,12.41,47.59359,-54.27349
2023-10-13 13:14:01+00:00,122.0,5.46,112.0,6.98,12.89,47.59359,-54.27349
2023-10-13 13:24:01+00:00,128.0,5.78,126.0,7.39,12.89,47.59359,-54.27349
2023-10-13 13:34:01+00:00,129.0,6.49,131.0,7.61,12.89,47.59359,-54.27349
2023-10-13 13:44:01+00:00,127.0,5.73,125.0,6.54,12.89,47.59359,-54.27349
2023-10-13 13:54:01+00:00,125.0,5.39,122.0,6.59,12.89,47.59359,-54.27349
2023-10-13 14:04:01+00:00,128.0,5.68,126.0,7.03,12.89,47.59359,-54.27349
2023-10-13 14:14:00+00:00,125.0,5.54,124.0,6.91,13.44,47.59359,-54.27349
2023-10-13 14:24:00+00:00,132.0,6.41,124.0,7.87,13.44,47.59359,-54.27349
2023-10-13 14:34:00+00:00,125.0,7.84,127.0,8.98,13.44,47.59359,-54.27349
2023-10-13 14:44:00+00:00,128.0,7.94,132.0,9.21,13.44,47.59359,-54.27349
2023-10-13 14:54:00+00:00,133.0,7.22,130.0,8.45,13.44,47.59359,-54.27349
2023-10-13 15:04:00+00:00,134.0,6.81,140.0,8.35,13.44,47.59359,-54.27349
2023-10-13 15:14:00+00:00,135.0,6.64,141.0,8.45,13.21,47.59359,-54.27349
2023-10-13 15:24:00+00:00,137.0,6.61,141.0,8.31,13.21,47.59359,-54.27349
2023-10-13 15:34:00+00:00,138.0,7.06,141.0,8.37,13.21,47.59359,-54.27349
2023-10-13 15:44:00+00:00,142.0,7.26,143.0,8.52,13.21,47.59359,-54.27349
2023-10-13 15:54:00+00:00,146.0,5.97,146.0,6.66,13.21,47.59359,-54.27349
2023-10-13 16:04:00+00:00,149.0,5.87,145.0,6.49,13.21,47.59359,-54.27349
2023-10-13 16:14:00+00:00,143.0,6.38,141.0,7.28,13.21,47.59359,-54.27349
2023-10-13 16:24:00+00:00,139.0,4.87,132.0,6.01,13.21,47.59359,-54.27349
2023-10-13 16:34:00+00:00,141.0,5.81,137.0,6.93,13.21,47.59359,-54.27349
2023-10-13 16:44:00+00:00,141.0,6.83,137.0,8.52,13.21,47.59359,-54.27349
2023-10-13 16:54:00+00:00,139.0,4.8,146.0,5.56,13.21,47.59359,-54.27349
2023-10-13 17:04:00+00:00,146.0,5.76,145.0,6.65,13.21,47.59359,-54.27349
2023-10-13 17:14:01+00:00,135.0,4.77,136.0,6.53,13.29,47.59359,-54.27349
2023-10-13 17:24:01+00:00,128.0,7.18,127.0,7.95,13.29,47.59359,-54.27349
2023-10-13 17:34:01+00:00,123.0,5.27,128.0,6.49,13.29,47.59359,-54.27349
2023-10-13 17:44:01+00:00,125.0,5.81,127.0,7.1,13.29,47.59359,-54.27349
2023-10-13 17:54:01+00:00,125.0,6.83,125.0,7.8,13.29,47.59359,-54.27349
2023-10-13 18:04:01+00:00,119.0,4.6,119.0,5.97,13.29,47.59359,-54.27349
2023-10-13 18:14:01+00:00,121.0,4.88,135.0,6.91,13.29,47.59359,-54.27349
2023-10-13 18:24:01+00:00,120.0,5.32,125.0,6.78,13.29,47.59359,-54.27349
2023-10-13 18:34:01+00:00,118.0,4.47,131.0,5.72,13.29,47.59359,-54.27349
2023-10-13 18:44:01+00:00,90.0,2.45,82.0,4.09,13.29,47.59359,-54.27349
2023-10-13 18:54:01+00:00,124.0,3.62,125.0,4.83,13.29,47.59359,-54.27349
2023-10-13 19:04:01+00:00,122.0,4.28,121.0,4.83,13.29,47.59359,-54.27349
2023-10-13 19:14:01+00:00,123.0,3.49,120.0,4.41,13.05,47.59359,-54.27349
2023-10-13 19:24:01+00:00,112.0,2.58,118.0,4.02,13.05,47.59359,-54.27349
2023-10-13 19:34:01+00:00,111.0,2.82,120.0,4.96,13.05,47.59359,-54.27349
2023-10-13 19:44:01+00:00,95.0,2.31,89.0,4.16,13.05,47.59359,-54.27349
2023-10-13 19:54:01+00:00,102.0,2.5,131.0,5.05,13.05,47.59359,-54.27349
2023-10-13 20:04:01+00:00,114.0,4.21,120.0,7.83,13.05,47.59359,-54.27349
2023-10-13 20:14:00+00:00,117.0,4.32,134.0,8.03,12.65,47.59359,-54.27349
2023-10-13 20:24:00+00:00,99.0,3.17,93.0,5.29,12.65,47.59359,-54.27349
2023-10-13 20:34:00+00:00,97.0,3.76,87.0,6.89,12.65,47.59359,-54.27349
2023-10-13 20:44:00+00:00,94.0,4.73,116.0,7.6,12.65,47.59359,-54.27349
2023-10-13 20:54:00+00:00,93.0,5.74,84.0,9.57,12.65,47.59359,-54.27349
2023-10-13 21:04:00+00:00,84.0,4.53,85.0,7.23,12.65,47.59359,-54.27349
2023-10-13 21:14:00+00:00,88.0,4.72,87.0,7.63,12.49,47.59359,-54.27349
2023-10-13 21:24:00+00:00,93.0,3.87,69.0,5.93,12.49,47.59359,-54.27349
2023-10-13 21:34:00+00:00,95.0,4.9,93.0,8.64,12.49,47.59359,-54.27349
2023-10-13 21:44:00+00:00,94.0,4.0,84.0,6.42,12.49,47.59359,-54.27349
2023-10-13 21:54:00+00:00,93.0,4.85,113.0,7.41,12.49,47.59359,-54.27349
2023-10-13 22:04:00+00:00,90.0,4.1,99.0,6.55,12.49,47.59359,-54.27349
2023-10-13 22:14:00+00:00,94.0,4.06,101.0,7.0,12.49,47.59359,-54.27349
2023-10-13 22:24:00+00:00,92.0,4.41,94.0,7.4,12.49,47.59359,-54.27349
2023-10-13 22:34:00+00:00,101.0,4.83,126.0,7.78,12.49,47.59359,-54.27349
2023-10-13 22:44:00+00:00,91.0,4.15,95.0,6.7,12.49,47.59359,-54.27349
2023-10-13 22:54:00+00:00,95.0,3.97,124.0,7.01,12.49,47.59359,-54.27349
2023-10-13 23:04:00+00:00,96.0,4.48,104.0,6.81,12.49,47.59359,-54.27349
2023-10-13 23:14:01+00:00,90.0,4.67,92.0,8.12,12.41,47.59359,-54.27349
2023-10-13 23:24:01+00:00,93.0,4.69,89.0,7.96,12.41,47.59359,-54.27349
2023-10-13 23:34:01+00:00,99.0,4.53,124.0,9.18,12.41,47.59359,-54.27349
2023-10-13 23:44:01+00:00,93.0,4.99,101.0,8.31,12.41,47.59359,-54.27349
2023-10-13 23:54:01+00:00,93.0,4.53,119.0,6.82,12.41,47.59359,-54.27349
